N5CSU Weather Reports


time (UTC)temp
C
wind
direction
speed
KPH
gust
KPH
rain 1hr
cm
rain 24hr
cm
rain mn
cm
humidity
%
barometer
mb
20260508024937 16 198 0.0 0.0 0.00 0.00 0.00 83 1015.4
20260508024433 16 200 0.0 0.0 0.00 0.00 0.00 83 1015.5
20260508023930 16 200 0.0 0.0 0.00 0.00 0.00 83 1015.5
20260508023427 16 200 0.0 0.0 0.00 0.00 0.00 82 1015.4
20260508022924 16 200 0.0 0.0 0.00 0.00 0.00 82 1015.5
20260508022419 16 200 0.0 0.0 0.00 0.00 0.00 82 1015.4
20260508021916 16 200 0.0 0.0 0.00 0.00 0.00 81 1015.5
20260508021413 16 200 0.0 0.0 0.00 0.00 0.00 81 1015.3
20260508020908 16 201 0.0 0.0 0.00 0.00 0.00 80 1015.2
20260508020407 16 201 0.0 0.0 0.00 0.00 0.00 80 1015.1
20260508015903 17 201 0.0 0.0 0.00 0.00 0.00 79 1015.1
20260508015401 17 201 0.0 0.0 0.00 0.00 0.00 79 1015.1
20260508014857 17 201 0.0 0.0 0.00 0.00 0.00 79 1015.1
20260508014355 17 201 0.0 0.0 0.00 0.00 0.00 78 1015.1
20260508013855 17 202 0.0 0.0 0.00 0.00 0.00 78 1015.3
20260508013351 17 203 0.0 0.0 0.00 0.00 0.00 78 1015.0
20260508012849 17 201 0.0 0.0 0.00 0.00 0.00 77 1015.3
20260508012346 17 201 0.0 0.0 0.00 0.00 0.00 76 1015.3
20260508011844 17 201 0.0 0.0 0.00 0.00 0.00 75 1015.3
20260508011342 17 201 0.0 0.0 0.00 0.00 0.00 74 1015.0
20260508010838 18 201 0.0 0.0 0.00 0.00 0.00 74 1015.1
20260508010336 18 210 0.0 0.0 0.00 0.00 0.00 73 1015.4
20260508005833 18 194 0.0 0.0 0.00 0.00 0.00 73 1015.2
20260508005329 18 194 0.0 0.0 0.00 0.00 0.00 72 1015.2
20260508004825 18 194 0.0 0.0 0.00 0.00 0.00 73 1014.9
20260508004322 18 197 0.0 0.0 0.00 0.00 0.00 72 1015.2
20260508003818 18 197 0.0 0.0 0.00 0.00 0.00 71 1015.3
20260508003316 18 197 0.0 0.0 0.00 0.00 0.00 71 1015.2
20260508002813 18 197 0.0 0.0 0.00 0.00 0.00 71 1015.3
20260508002309 18 197 0.0 0.0 0.00 0.00 0.00 70 1015.3
20260508001806 19 197 0.0 0.0 0.00 0.00 0.00 69 1015.3
20260508001302 19 197 0.0 0.0 0.00 0.00 0.00 69 1015.3
20260508000758 19 197 0.0 0.0 0.00 0.00 0.00 68 1015.2
20260508000257 19 197 0.0 0.0 0.00 0.00 0.00 67 1015.3
20260507235752 20 197 0.0 0.0 0.00 0.00 0.00 67 1015.6
20260507235249 20 198 0.0 0.0 0.00 0.00 0.00 67 1015.3
20260507234745 20 197 0.0 0.0 0.00 0.00 0.00 65 1015.3
20260507234242 20 196 0.0 0.0 0.00 0.00 0.00 66 1015.4
20260507233738 20 190 0.0 0.0 0.00 0.00 0.00 66 1015.4
20260507233236 20 190 0.0 0.0 0.00 0.00 0.00 66 1015.5
20260507232734 20 192 0.0 0.0 0.00 0.00 0.00 66 1015.3
20260507232231 20 198 0.0 0.0 0.00 0.00 0.00 66 1015.2
20260507231727 20 201 0.0 0.0 0.00 0.00 0.00 66 1015.4
20260507231224 20 203 0.0 0.0 0.00 0.00 0.00 66 1015.5
20260507230721 20 197 0.0 0.0 0.00 0.00 0.00 68 1015.4
20260507230219 20 193 0.0 0.0 0.00 0.00 0.00 66 1015.5
20260507225717 20 185 0.0 0.0 0.00 0.00 0.00 67 1015.6
20260507225214 20 205 0.0 0.0 0.00 0.00 0.00 66 1015.6
20260507224710 20 183 0.0 0.0 0.00 0.00 0.00 66 1015.5
20260507224207 20 193 0.0 0.0 0.00 0.00 0.00 66 1015.6
20260507223703 20 184 0.0 0.0 0.00 0.00 0.00 65 1015.7
20260507223200 20 206 0.0 0.0 0.00 0.00 0.00 65 1015.6
20260507222657 20 202 0.0 0.0 0.00 0.00 0.00 65 1015.6
20260507222153 20 192 0.0 0.0 0.00 0.00 0.00 65 1015.8
20260507221650 21 201 0.0 0.0 0.00 0.00 0.00 63 1015.6
20260507221146 21 180 0.0 1.6 0.00 0.00 0.00 62 1015.3
20260507220643 21 198 0.0 0.0 0.00 0.00 0.00 61 1015.5
20260507220141 21 205 0.0 0.0 0.00 0.00 0.00 60 1015.6
20260507215637 21 202 0.0 0.0 0.00 0.00 0.00 60 1015.7
20260507215135 21 183 0.0 0.0 0.00 0.00 0.00 61 1015.8
20260507214632 21 178 0.0 0.0 0.00 0.00 0.00 60 1015.5
20260507214128 21 181 0.0 0.0 0.00 0.00 0.00 60 1015.9
20260507213625 21 169 0.0 0.0 0.00 0.00 0.00 55 1015.8
20260507213122 21 176 0.0 0.0 0.00 0.00 0.00 60 1016.0
20260507212618 21 189 0.0 0.0 0.00 0.00 0.00 60 1016.1
20260507212114 21 189 0.0 0.0 0.00 0.00 0.00 57 1016.3
20260507211611 21 188 0.0 0.0 0.00 0.00 0.00 58 1016.4
20260507211107 21 174 0.0 0.0 0.00 0.00 0.00 58 1016.4
20260507210605 21 106 0.0 1.6 0.00 0.00 0.00 57 1016.3
20260507205558 21 177 0.0 0.0 0.00 0.00 0.00 61 1016.4
20260507205054 21 186 0.0 0.0 0.00 0.00 0.00 55 1016.3
20260507204550 21 181 0.0 0.0 0.00 0.00 0.00 58 1016.3
20260507204048 21 189 0.0 0.0 0.00 0.00 0.00 57 1016.0
20260507203546 21 186 0.0 0.0 0.00 0.00 0.00 58 1016.1
20260507203043 21 194 0.0 0.0 0.00 0.00 0.00 56 1016.0
20260507202539 21 184 0.0 0.0 0.00 0.00 0.00 57 1016.3
20260507202035 21 197 0.0 0.0 0.00 0.00 0.00 58 1016.6
20260507201531 21 197 0.0 0.0 0.00 0.00 0.00 58 1016.7
20260507201027 21 190 0.0 0.0 0.00 0.00 0.00 59 1016.8
20260507200523 21 185 0.0 0.0 0.00 0.00 0.00 56 1016.8
20260507200019 21 194 0.0 0.0 0.00 0.00 0.00 55 1016.8
20260507195516 21 210 0.0 0.0 0.00 0.00 0.00 57 1016.7
20260507195014 21 180 0.0 0.0 0.00 0.00 0.00 59 1016.9
20260507194510 21 188 0.0 0.0 0.00 0.00 0.00 58 1016.8
20260507194006 21 189 0.0 1.6 0.00 0.00 0.00 57 1016.9
20260507193503 22 184 0.0 0.0 0.00 0.00 0.00 56 1017.1
20260507193000 22 192 0.0 0.0 0.00 0.00 0.00 56 1017.1
20260507192456 21 191 0.0 0.0 0.00 0.00 0.00 55 1017.4
20260507191953 22 178 0.0 1.6 0.00 0.00 0.00 56 1017.4
20260507191449 21 177 0.0 0.0 0.00 0.00 0.00 55 1017.5
20260507190946 21 178 0.0 0.0 0.00 0.00 0.00 55 1017.4
20260507190444 21 293 0.0 0.0 0.00 0.00 0.00 58 1017.4
20260507185943 21 182 0.0 0.0 0.00 0.00 0.00 56 1017.4
20260507185439 21 178 1.6 1.6 0.00 0.00 0.00 55 1017.6
20260507184936 21 161 0.0 0.0 0.00 0.00 0.00 53 1017.5
20260507184434 21 194 0.0 0.0 0.00 0.00 0.00 54 1017.6
20260507183931 21 168 0.0 0.0 0.00 0.00 0.00 56 1017.3
20260507183428 21 175 1.6 1.6 0.00 0.00 0.00 54 1017.5
20260507182925 21 193 0.0 1.6 0.00 0.00 0.00 55 1017.5
20260507182421 21 204 0.0 0.0 0.00 0.00 0.00 55 1017.7
20260507181918 21 172 3.2 3.2 0.00 0.00 0.00 56 1017.8
20260507181414 21 204 0.0 0.0 0.00 0.00 0.00 57 1017.7
20260507180910 21 194 0.0 0.0 0.00 0.00 0.00 55 1017.7
20260507180407 20 189 0.0 0.0 0.00 0.00 0.00 58 1018.0
20260507175903 20 79 1.6 1.6 0.00 0.00 0.00 52 1018.3
20260507175400 20 201 0.0 0.0 0.00 0.00 0.00 56 1018.1
20260507174858 20 176 0.0 0.0 0.00 0.00 0.00 58 1018.2
20260507174355 20 189 0.0 0.0 0.00 0.00 0.00 62 1018.3
20260507173852 20 205 0.0 0.0 0.00 0.00 0.00 59 1018.5
20260507173349 20 190 0.0 0.0 0.00 0.00 0.00 58 1018.5
20260507172846 20 191 0.0 0.0 0.00 0.00 0.00 59 1018.5
20260507172342 20 192 0.0 0.0 0.00 0.00 0.00 59 1018.8
20260507171838 20 182 0.0 0.0 0.00 0.00 0.00 62 1018.8
20260507171335 20 190 0.0 0.0 0.00 0.00 0.00 61 1019.0
20260507170832 20 189 0.0 0.0 0.00 0.00 0.00 58 1019.3
20260507170329 19 203 0.0 1.6 0.00 0.00 0.00 62 1019.2
20260507165825 19 181 0.0 0.0 0.00 0.00 0.00 60 1019.5
20260507165320 19 174 1.6 1.6 0.00 0.00 0.00 61 1019.5
20260507164817 19 190 0.0 1.6 0.00 0.00 0.00 62 1019.8
20260507164314 19 190 0.0 0.0 0.00 0.00 0.00 62 1019.8
20260507163811 18 357 0.0 1.6 0.00 0.00 0.00 60 1019.6
20260507163309 18 192 0.0 0.0 0.00 0.00 0.00 64 1019.5
20260507162805 18 185 0.0 0.0 0.00 0.00 0.00 67 1019.8
20260507162300 18 206 0.0 0.0 0.00 0.00 0.00 64 1019.9
20260507161758 18 205 0.0 0.0 0.00 0.00 0.00 65 1019.9
20260507161255 18 180 0.0 0.0 0.00 0.00 0.00 65 1019.8
20260507160750 18 186 1.6 3.2 0.00 0.00 0.00 65 1019.6
20260507160247 18 181 0.0 1.6 0.00 0.00 0.00 65 1019.6
20260507155743 18 185 0.0 0.0 0.00 0.00 0.00 66 1019.9
20260507155238 18 199 0.0 0.0 0.00 0.00 0.00 66 1019.8
20260507154736 18 180 0.0 0.0 0.00 0.00 0.00 66 1019.8
20260507154233 18 176 0.0 0.0 0.00 0.00 0.00 68 1019.9
20260507153730 18 183 0.0 0.0 0.00 0.00 0.00 68 1019.9
20260507153226 17 198 0.0 0.0 0.00 0.00 0.00 69 1020.0
20260507152722 17 166 0.0 0.0 0.00 0.00 0.00 68 1020.1
20260507152219 17 192 0.0 0.0 0.00 0.00 0.00 69 1020.1
20260507151715 17 192 0.0 0.0 0.00 0.00 0.00 70 1020.0
20260507151212 17 53 1.6 3.2 0.00 0.00 0.00 68 1020.2
20260507150708 17 174 0.0 0.0 0.00 0.00 0.00 72 1020.2
20260507150206 17 174 0.0 0.0 0.00 0.00 0.00 71 1020.2
20260507145701 17 169 0.0 0.0 0.00 0.00 0.00 71 1020.4
20260507145158 16 183 0.0 0.0 0.00 0.00 0.00 73 1020.3
20260507144654 16 169 0.0 0.0 0.00 0.00 0.00 72 1020.4
20260507144153 16 160 0.0 0.0 0.00 0.00 0.00 74 1020.3
20260507143650 16 195 0.0 0.0 0.00 0.00 0.00 77 1020.2
20260507143147 16 177 0.0 0.0 0.00 0.00 0.00 77 1020.3
20260507142642 16 188 0.0 0.0 0.00 0.00 0.00 77 1020.2
20260507142139 16 147 0.0 0.0 0.00 0.00 0.00 77 1020.5
20260507141636 15 198 0.0 0.0 0.00 0.00 0.00 79 1020.5
20260507141133 15 175 0.0 0.0 0.00 0.00 0.00 79 1020.4
20260507140629 15 183 0.0 0.0 0.00 0.00 0.00 81 1020.6
20260507140127 15 181 0.0 0.0 0.00 0.00 0.00 81 1020.6
20260507135623 15 177 0.0 0.0 0.00 0.00 0.00 80 1020.7
20260507135121 15 177 0.0 0.0 0.00 0.00 0.00 81 1020.7
20260507134617 14 163 0.0 0.0 0.00 0.00 0.00 81 1020.9
20260507134113 14 172 0.0 0.0 0.00 0.00 0.00 85 1020.9
20260507133609 13 168 0.0 0.0 0.00 0.00 0.00 87 1021.0
20260507133107 13 184 0.0 0.0 0.00 0.00 0.00 88 1020.9
20260507132603 13 185 0.0 0.0 0.00 0.00 0.00 90 1020.9
20260507132100 13 180 0.0 0.0 0.00 0.00 0.00 94 1020.9
20260507131557 13 182 0.0 0.0 0.00 0.00 0.00 95 1020.7
20260507131055 13 182 0.0 0.0 0.00 0.00 0.00 95 1020.7
20260507130551 12 181 0.0 0.0 0.00 0.00 0.00 95 1020.8
20260507130049 12 181 0.0 0.0 0.00 0.00 0.00 95 1020.9
20260507125548 12 181 0.0 0.0 0.00 0.00 0.00 95 1020.9
20260507125045 12 181 0.0 0.0 0.00 0.00 0.00 95 1020.9
20260507124541 12 181 0.0 0.0 0.00 0.00 0.00 95 1020.7
20260507124039 11 182 0.0 0.0 0.00 0.00 0.00 95 1020.7
20260507123537 11 182 0.0 0.0 0.00 0.00 0.00 95 1020.3
20260507123033 11 182 0.0 0.0 0.00 0.00 0.00 95 1020.5
20260507122528 11 182 0.0 0.0 0.00 0.00 0.00 95 1020.6
20260507122025 11 182 0.0 0.0 0.00 0.00 0.00 95 1020.6
20260507121520 11 182 0.0 0.0 0.00 0.00 0.00 95 1020.5
20260507121016 11 182 0.0 0.0 0.00 0.00 0.00 95 1020.6
20260507120513 11 182 0.0 0.0 0.00 0.00 0.00 95 1020.6
20260507120010 11 182 0.0 0.0 0.00 0.00 0.00 95 1020.5
20260507115506 11 184 0.0 0.0 0.00 0.00 0.00 95 1020.2
20260507115002 11 184 0.0 0.0 0.00 0.00 0.00 94 1020.3
20260507114458 11 184 0.0 0.0 0.00 0.00 0.00 94 1020.4
20260507113955 11 184 0.0 0.0 0.00 0.00 0.00 94 1020.2
20260507113452 11 184 0.0 0.0 0.00 0.00 0.00 94 1020.2
20260507112949 11 184 0.0 0.0 0.00 0.00 0.00 94 1019.9
20260507112447 11 184 0.0 0.0 0.00 0.00 0.00 94 1020.0
20260507111944 11 184 0.0 0.0 0.00 0.00 0.00 94 1020.0
20260507111441 11 184 0.0 0.0 0.00 0.00 0.00 94 1019.9
20260507110937 11 184 0.0 0.0 0.00 0.00 0.00 94 1020.0
20260507110433 11 184 0.0 0.0 0.00 0.00 0.00 94 1019.8
20260507105930 11 184 0.0 0.0 0.00 0.00 0.00 94 1019.8
20260507105427 11 184 0.0 0.0 0.00 0.00 0.00 94 1019.8
20260507104923 11 184 0.0 0.0 0.00 0.00 0.00 94 1019.3
20260507104421 11 184 0.0 0.0 0.00 0.00 0.00 94 1019.1
20260507103916 11 184 0.0 0.0 0.00 0.00 0.00 93 1019.0
20260507103413 11 184 0.0 0.0 0.00 0.00 0.00 93 1019.0
20260507102909 11 184 0.0 0.0 0.00 0.00 0.00 93 1019.0
20260507102406 11 184 0.0 0.0 0.00 0.00 0.00 93 1018.8
20260507101903 11 184 0.0 0.0 0.00 0.00 0.00 93 1018.8
20260507101403 11 184 0.0 0.0 0.00 0.00 0.00 92 1018.5
20260507100900 11 184 0.0 0.0 0.00 0.00 0.00 92 1018.5
20260507100357 11 184 0.0 0.0 0.00 0.00 0.00 92 1018.5
20260507095856 11 184 0.0 0.0 0.00 0.00 0.00 92 1018.4
20260507095352 11 184 0.0 0.0 0.00 0.00 0.00 92 1018.5
20260507094849 11 184 0.0 0.0 0.00 0.00 0.00 91 1018.4
20260507094345 11 184 0.0 0.0 0.00 0.00 0.00 91 1018.4
20260507093843 11 184 0.0 0.0 0.00 0.00 0.00 91 1018.3
20260507093341 11 184 0.0 0.0 0.00 0.00 0.00 90 1018.2
20260507092839 11 184 0.0 0.0 0.00 0.00 0.00 90 1018.4
20260507092335 12 183 0.0 0.0 0.00 0.00 0.00 90 1018.2
20260507091831 12 183 0.0 0.0 0.00 0.00 0.00 90 1018.3
20260507091328 12 182 0.0 0.0 0.00 0.00 0.00 90 1018.0
20260507090823 12 182 0.0 0.0 0.00 0.00 0.00 90 1018.3
20260507090320 12 182 0.0 0.0 0.00 0.00 0.00 90 1018.0
20260507085817 12 182 0.0 0.0 0.00 0.00 0.00 90 1018.0
20260507085314 12 182 0.0 0.0 0.00 0.00 0.00 89 1018.1
20260507084811 12 182 0.0 0.0 0.00 0.00 0.00 89 1018.3
20260507084307 12 180 0.0 0.0 0.00 0.00 0.00 89 1018.1
20260507083805 12 180 0.0 0.0 0.00 0.00 0.00 89 1018.2
20260507083301 12 179 0.0 0.0 0.00 0.00 0.00 89 1018.0
20260507082757 12 181 0.0 0.0 0.00 0.00 0.00 89 1018.2
20260507082253 12 180 0.0 0.0 0.00 0.00 0.00 89 1018.1
20260507081750 12 180 0.0 0.0 0.00 0.00 0.00 89 1018.2
20260507081246 12 184 0.0 0.0 0.00 0.00 0.00 88 1018.0
20260507080743 13 184 0.0 0.0 0.00 0.00 0.00 88 1017.9
20260507080239 13 184 0.0 0.0 0.00 0.00 0.00 88 1017.9
20260507075735 13 175 0.0 0.0 0.00 0.00 0.00 87 1017.9
20260507075231 13 183 0.0 0.0 0.00 0.00 0.00 87 1017.7
20260507074727 13 178 0.0 0.0 0.00 0.00 0.00 87 1017.7
20260507074226 13 179 0.0 0.0 0.00 0.00 0.00 87 1017.4
20260507073722 13 182 0.0 0.0 0.00 0.00 0.00 87 1017.4
20260507073219 13 183 0.0 0.0 0.00 0.00 0.00 87 1017.2
20260507072717 13 180 0.0 0.0 0.00 0.00 0.00 87 1017.3
20260507072214 13 187 0.0 0.0 0.00 0.00 0.00 87 1017.2
20260507071711 13 194 0.0 0.0 0.00 0.00 0.00 87 1017.5
20260507071208 13 175 0.0 0.0 0.00 0.00 0.00 87 1017.5
20260507070705 13 174 0.0 0.0 0.00 0.00 0.00 87 1017.5
20260507070201 13 172 0.0 0.0 0.00 0.00 0.00 86 1017.5
20260507065657 13 176 0.0 0.0 0.00 0.00 0.00 86 1017.4
20260507065155 13 174 0.0 0.0 0.00 0.00 0.00 86 1017.6
20260507064652 13 182 0.0 0.0 0.00 0.00 0.00 85 1017.7
20260507064150 13 181 0.0 0.0 0.00 0.00 0.00 85 1017.5
20260507063648 13 183 0.0 0.0 0.00 0.00 0.00 84 1017.6
20260507063145 13 171 0.0 0.0 0.00 0.00 0.00 83 1017.5
20260507062641 13 160 0.0 0.0 0.00 0.00 0.00 83 1017.4
20260507062139 13 172 0.0 0.0 0.00 0.00 0.00 82 1017.6
20260507061637 13 170 0.0 0.0 0.00 0.00 0.00 82 1017.2
20260507061134 14 189 0.0 0.0 0.00 0.00 0.00 82 1017.4
20260507060632 14 176 0.0 0.0 0.00 0.00 0.00 81 1017.4
20260507060128 14 171 0.0 0.0 0.00 0.00 0.00 82 1017.4
20260507055624 14 173 0.0 0.0 0.00 0.00 0.00 81 1017.2
20260507055120 14 183 0.0 0.0 0.00 0.00 0.00 81 1017.4
20260507054616 14 151 0.0 0.0 0.00 0.00 0.00 81 1017.4
20260507054113 14 40 0.0 1.6 0.00 0.00 0.00 81 1017.4
20260507053611 15 156 1.6 1.6 0.00 0.00 0.00 81 1017.2
20260507053110 15 172 1.6 1.6 0.00 0.00 0.00 82 1017.3
20260507052607 15 158 0.0 0.0 0.00 0.00 0.00 82 1017.2
20260507052103 15 193 0.0 0.0 0.00 0.00 0.00 82 1017.4
20260507051601 15 162 0.0 0.0 0.00 0.00 0.00 81 1017.4
20260507051058 15 197 1.6 1.6 0.00 0.00 0.00 81 1017.4
20260507050554 15 168 0.0 0.0 0.00 0.00 0.00 82 1017.4
20260507050051 15 169 1.6 1.6 0.00 0.00 0.00 82 1017.4
20260507045548 15 188 0.0 0.0 0.00 0.00 0.00 81 1017.4
20260507045045 15 197 0.0 0.0 0.00 0.00 0.00 80 1017.7
20260507044541 15 177 0.0 0.0 0.00 0.00 0.00 80 1017.6
20260507044039 15 162 0.0 0.0 0.00 0.00 0.00 79 1017.6
20260507043534 15 131 0.0 1.6 0.00 0.00 0.00 80 1017.6
20260507043032 15 186 1.6 1.6 0.00 0.00 0.00 79 1017.6
20260507042527 15 19 0.0 3.2 0.00 0.00 0.00 79 1017.7
20260507042023 15 47 3.2 4.8 0.00 0.00 0.00 78 1018.0
20260507041521 15 192 0.0 0.0 0.00 0.00 0.00 78 1017.8
20260507041017 15 181 0.0 0.0 0.00 0.00 0.00 79 1017.8
20260507040514 15 183 0.0 0.0 0.00 0.00 0.00 80 1018.0
20260507040009 15 196 0.0 0.0 0.00 0.00 0.00 79 1017.8
20260507035506 15 188 0.0 0.0 0.00 0.00 0.00 80 1017.8
20260507035002 15 182 0.0 0.0 0.00 0.00 0.00 80 1017.7
20260507034459 15 192 0.0 0.0 0.00 0.00 0.00 80 1017.9
20260507033957 15 177 0.0 0.0 0.00 0.00 0.00 80 1017.9
20260507033456 15 193 0.0 0.0 0.00 0.00 0.00 80 1017.9
20260507032952 15 199 0.0 0.0 0.00 0.00 0.00 79 1017.9
20260507032449 15 196 0.0 0.0 0.00 0.00 0.00 79 1017.6
20260507031945 15 202 0.0 0.0 0.00 0.00 0.00 79 1017.6
20260507031441 15 199 0.0 1.6 0.00 0.00 0.00 80 1017.4
20260507030938 15 224 1.6 1.6 0.00 0.00 0.00 81 1017.5
20260507030436 15 184 0.0 0.0 0.00 0.00 0.00 81 1017.3
20260507025933 15 187 0.0 0.0 0.00 0.00 0.00 81 1017.3
20260507025430 15 187 0.0 0.0 0.00 0.00 0.00 81 1017.1